Regional Weather Roundup
Issued by NWS

Home | Current Version | Previous Version | Graphics & Text | Print | Product List | Glossary On
Versions: 1 2 3 4 5 6 7 8 9 10 11 12 13 14 15 16 17 18 19 20 21 22 23 24 25 26 27 28 29 30 31 32 33 34 35 36 37 38 39 40 41 42 43 44 45 46 47 48 49 50
000
ASUS43 KOAX 220010
RWRNE

WEATHER ROUNDUP FOR NEBRASKA
NATIONAL WEATHER SERVICE OMAHA NE
700 PM CDT SUN SEP 21 2014

NOTES: SATELLITE DATA IS BEING USED TO AUGMENT CLOUD COVER ABOVE
       12000 FEET.
       "FAIR" INDICATES FEW OR NO CLOUDS BELOW 12,000 FEET WITH NO
       SIGNIFICANT WEATHER AND/OR OBSTRUCTIONS TO VISIBILITY.

  * THESE STATIONS DO NOT REPORT WEATHER SUCH AS RAIN...SNOW OR FOG.

NEZ001>004-019>022-054>056-220100-
NEBRASKA PANHANDLE

CITY           SKY/WX    TMP DP  RH WIND       PRES   REMARKS
SCOTTSBLUFF    MOCLDY    71  42  35 E14       30.27S
6HR MIN TEMP:  68; 6HR MAX TEMP:  76;

ALLIANCE       CLOUDY    71  40  32 S8        30.28R
6HR MIN TEMP:  68; 6HR MAX TEMP:  76;

CHADRON        PTCLDY    71  41  33 E8        30.24F
6HR MIN TEMP:  70; 6HR MAX TEMP:  78;

KIMBALL        PTCLDY    68  40  35 SE13      30.30S
SIDNEY         CLOUDY    71  41  33 SE12      30.31S
6HR MIN TEMP:  70; 6HR MAX TEMP:  77;

$$

NEZ057>060-069>072-079>082-220100-
SOUTHWEST NEBRASKA

CITY           SKY/WX    TMP DP  RH WIND       PRES   REMARKS
NORTH PLATTE   CLEAR     69  42  37 NE6       30.27S
6HR MIN TEMP:  69; 6HR MAX TEMP:  77;

IMPERIAL       MOCLDY    73  40  30 S6        30.28S
6HR MIN TEMP:  70; 6HR MAX TEMP:  78;

LEXINGTON      CLEAR     69  41  36 NE6       30.26S
MCCOOK         CLEAR     72  42  34 E8        30.27R
6HR MIN TEMP:  72; 6HR MAX TEMP:  79;

OGALLALA       PTCLDY    74  44  34 CALM      30.27S
$$

NEZ005>010-023>029-035>040-094-220100-
NORTH CENTRAL NEBRASKA

CITY           SKY/WX    TMP DP  RH WIND       PRES   REMARKS
VALENTINE      CLEAR     71  37  28 NE6       30.27S
6HR MIN TEMP:  71; 6HR MAX TEMP:  75;

AINSWORTH      CLEAR     66  44  44 NE6       30.28S
BROKEN BOW     CLEAR     72  38  29 NE6       30.26S
6HR MIN TEMP:  72; 6HR MAX TEMP:  77;

O`NEILL        CLEAR     66  48  52 N5        30.26S
ORD            CLEAR     68  44  42 NE5       30.25R
6HR MIN TEMP:  68; 6HR MAX TEMP:  74;

THEDFORD       CLEAR     70  38  30 NE3       30.28S
$$

NEZ041-046>049-061>064-073>077-083>087-220100-
SOUTH CENTRAL NEBRASKA

CITY           SKY/WX    TMP DP  RH WIND       PRES   REMARKS
GRAND ISLAND   CLEAR     69  45  41 N6        30.25S
6HR MIN TEMP:  69; 6HR MAX TEMP:  76;

AURORA         CLEAR     67  46  46 N5        30.25R
HASTINGS       CLEAR     69  43  38 NE6       30.25S
6HR MIN TEMP:  69; 6HR MAX TEMP:  74;

HEBRON         CLEAR     71  40  33 N5        30.23S
HOLDREGE       CLEAR     69  41  36 CALM      30.26R
KEARNEY *      CLEAR     68  45  42 N6        30.26S
YORK           CLEAR     64  50  59 N7        30.24S
$$

NEZ011>018-030>034-042>045-220100-
NORTHEAST NEBRASKA

CITY           SKY/WX    TMP DP  RH WIND       PRES   REMARKS
NORFOLK        CLEAR     67  45  45 N10       30.24R
6HR MIN TEMP:  67; 6HR MAX TEMP:  73;

ALBION         CLEAR     67  44  43 N6        30.25S
BLAIR          CLEAR     67  48  51 N8        30.22S
COLUMBUS *     CLEAR     66  46  48 NE6       30.25R
FREMONT        CLEAR     68  46  45 N6        30.23R
TEKAMAH        PTCLDY    69  47  45 N9        30.21S
6HR MIN TEMP:  69; 6HR MAX TEMP:  75;

WAYNE          CLEAR     66  48  52 N5        30.24S
$$

NEZ050>053-065>068-078-088>093-220100-
SOUTHEAST NEBRASKA

CITY           SKY/WX    TMP DP  RH WIND       PRES   REMARKS
LINCOLN        CLEAR     67  48  50 NE10      30.23R
6HR MIN TEMP:  67; 6HR MAX TEMP:  75; 6HR PCP: TRACE;

OMAHA EPPLEY   PTCLDY    67  49  52 N9        30.21S
6HR MIN TEMP:  67; 6HR MAX TEMP:  73;

BEATRICE       CLEAR     69  46  43 N8        30.22R
FALLS CITY     CLEAR     69  48  47 N9        30.19R
6HR MIN TEMP:  69; 6HR MAX TEMP:  75;

NEBRASKA CITY    N/A     67  40  38 N5        30.21S
PLATTSMOUTH    CLEAR     66  45  46 N6        30.21S
$$

NEZ044-045-051>053-067-220100-
OMAHA AREA

CITY           SKY/WX    TMP DP  RH WIND       PRES   REMARKS
OMAHA EPPLEY   PTCLDY    67  49  52 N9        30.21S
6HR MIN TEMP:  67; 6HR MAX TEMP:  73;

BLAIR          CLEAR     67  48  51 N8        30.22S
FREMONT        CLEAR     68  46  45 N6        30.23R
MILLARD        CLEAR     69  48  47 N6        30.21S
OFFUTT AFB     CLEAR     68  49  50 N9        30.20S
PLATTSMOUTH    CLEAR     66  45  46 N6        30.21S
WAHOO          FAIR      67  47  49 N5        30.22S
$$



USA.gov is the U.S. government's official web portal to all federal, state and local government web resources and services.